Lid_Strength_Index
8 8 6 2 1 1 1 1 1 0 0 0 0 0 0 0 0 0 0 0 1 1 0 1 1 0 1 1 1 4 4 5 4 6 4 4 3 3 3 1 1 1 1
7 8 7 5 1 1 1 1 0 1 0 0 0 0 1 0 0 1 1 1 1 1 1 1 1 1 2 3 3 5 5 4 5 6 5 5 5 4 3 2 2 1 1
5 6 7 6 5 1 1 1 1 1 1 0 0 1 1 1 1 0 1 1 1 1 1 1 2 4 5 5 6 5 6 6 5 6 7 6 6 6 4 2 2 2 2
5 5 6 7 7 6 1 1 1 0 1 1 1 1 1 0 1 1 1 1 1 1 2 2 3 4 6 5 5 5 6 6 6 6 7 8 7 6 3 3 4 2 3
7 5 6 4 5 5 3 1 1 1 1 1 1 1 1 1 1 1 1 1 1 2 3 3 2 2 4 5 5 5 4 6 7 7 7 8 7 7 4 3 3 3 3
7 6 5 5 3 4 3 2 1 1 1 1 1 1 1 1 7 6 2 1 1 2 3 2 2 5 6 7 7 7 5 7 7 7 7 7 7 5 4 4 3 4 5
6 6 5 5 5 3 1 2 2 2 1 2 1 1 2 1 10 9 7 1 2 2 3 3 5 5 6 6 8 8 8 9 7 4 6 6 6 4 3 3 3 3 3
7 7 6 5 4 3 1 2 2 2 2 2 2 2 1 1 10 10 8 1 3 3 4 6 5 6 5 6 7 8 8 8 7 6 5 5 4 3 3 2 2 3 3
6 6 6 5 4 3 2 2 2 2 2 2 2 2 2 1 11 11 6 2 3 4 5 4 5 4 9 10 7 8 9 8 10 10 11 10 9 8 5 3 4 4 5
7 6 5 4 4 3 2 2 2 2 2 2 2 1 4 2 12 12 6 3 5 6 4 5 8 5 11 11 7 7 7 8 7 7 7 8 7 7 7 2 3 4 5
5 5 4 3 2 2 1 1 2 2 2 2 2 2 2 2 9 11 10 4 6 7 7 6 6 11 12 11 9 6 7 7 8 6 5 5 5 4 4 4 3 4 5
5 4 4 2 1 1 2 2 1 2 3 3 3 3 2 5 9 11 10 8 7 6 6 4 7 13 12 12 9 12 11 8 6 5 5 5 5 5 5 4 3 4 3
5 4 3 2 2 1 2 2 3 2 3 3 3 4 5 5 6 10 11 11 10 6 6 9 13 13 13 13 12 12 10 6 5 5 6 6 6 6 5 4 4 3 4
6 5 5 3 3 3 3 2 2 3 3 3 3 3 6 7 7 9 9 9 10 10 12 12 12 11 11 10 10 8 6 5 4 5 6 7 7 6 6 5 5 5 7
6 6 6 6 6 7 10 11 8 6 6 3 4 4 6 7 8 9 10 9 10 11 11 11 11 10 10 9 7 7 6 6 5 6 7 8 7 7 7 5 5 6 8
9 8 8 7 6 7 7 8 13 13 13 10 10 7 5 8 12 12 13 13 13 12 11 11 11 10 9 8 8 7 7 6 6 7 7 8 8 8 7 6 6 7 8
10 9 9 9 8 8 8 8 8 9 12 14 13 12 12 11 12 13 13 14 13 11 9 10 10 9 9 8 8 7 7 7 7 8 8 8 8 7 8 7 8 8 8
10 10 9 10 10 9 9 9 10 11 13 13 13 12 13 13 13 13 14 12 11 10 10 10 10 10 9 9 9 8 8 8 8 7 8 8 8 8 8 8 8 8 9
11 11 10 10 10 9 9 10 11 12 12 13 13 13 13 13 13 12 12 10 11 11 10 10 10 10 10 10 9 9 8 8 8 8 8 8 8 8 9 8 9 13 11
10 11 11 9 10 10 10 10 11 11 11 11 12 12 11 11 11 11 12 11 12 12 11 11 10 11 10 10 10 9 9 9 8 9 9 9 9 9 9 9 9 10 9
10 10 13 10 11 12 12 13 13 12 12 12 12 13 15 11 12 12 12 13 13 13 12 12 12 12 11 10 10 9 9 8 8 9 9 9 9 10 9 9 9 10 10
9 10 11 11 12 12 12 12 12 12 12 13 12 13 14 13 12 12 13 13 13 13 13 13 13 12 11 10 10 9 9 9 9 9 10 10 10 10 10 10 10 10 10
10 10 11 11 11 13 12 12 12 12 12 12 13 13 12 13 14 14 14 14 14 14 12 12 12 13 11 10 9 9 9 9 9 9 10 10 10 10 10 10 10 10 10
10 10 11 11 11 12 12 13 13 14 14 14 13 13 13 13 14 14 14 14 14 13 13 12 12 12 11 10 10 9 9 9 9 9 10 10 11 11 10 10 10 11 11
10 10 10 11 11 11 12 12 12 12 12 12 13 13 13 13 14 15 15 14 14 14 14 13 12 12 11 11 11 11 14 15 10 12 10 10 10 10 11 11 11 11 11
10 11 11 11 10 11 10 11 11 11 12 12 13 13 14 14 15 15 15 14 14 14 13 13 13 12 11 11 12 16 17 16 13 15 10 11 11 11 11 11 11 10 10